TOURFACTS.DK  
Stats and Facts from Tour de France.

Tour de France 2018 starts in 16 days
  Riders   Stages   Teams   Summits   Yearly  


 
Search by year

After 2017 - Stage 21:
 14824 starters.
  5132 different riders.
  639 teams.
  2232 stages.
  456 restdays.
  439589.60 km.
  5653 abandonnees.


Top 3
GC
Christopher Froome86:20:55
Rigoberto Urán86:21:49
Romain Bardet86:23:15
Climb
Warren Barguil169 pt.
Primoz Roglic80 pt.
Thomas De Gendt64 pt.
Sprint
Michael Matthews359 pt.
André Greipel234 pt.
Edvald Boasson Hagen220 pt.
Youth
Simon Yates86:27:09
Louis Meintjes86:29:15
Emanuel Buchmann86:54:16
Facts from Tour de France 1975
  |   Stages.  |   Stage winners.  |   Days in yellow  |   Average speed.  |   Route.  |   Teams.  |   All riders.  |   Rookies.  |  

  |   Withdrawls.  |   GC.  |   Polka  |   Green  |   White  |   Summits. (In tour)  |   Miscellaneous.  |  

Stage 18 on 16 - 07 - 1975
         Owning:    Bernard Thevenet    
Pick a stage:  Pro 1a 1b 2 3 4 5 6 7 8 9a 9b 10 11 12 13 14 15 16 17 18 19 20 21 22
  Morzine-AvoriazChatel | Dist: 40.00 km.

Average speed for all riders in stage:  33,685 km./hr.
    Place:Name:Team:Time:Km/h:
BELLucien Van ImpeFRAGitane-Campagnolo01:03:15  +  00:00:00=37,945 
DENOle RitterITAFilotex01:04:11  +  00:00:56=37,393 
BELEddy MerckxITAMolteni01:04:12  +  00:00:57=37,383 
4 FRABernard ThevenetFRAPeugeot-BP-Michelin01:04:27  +  00:01:12=37,238 
5 PORJoaquim AgostinhoPRTSporting-Sottomayor01:04:35  +  00:01:20=37,161 
6 ITAFelice GimondiITABianchi-Campagnolo01:04:52  +  00:01:37=36,999 
7 NEDJoop ZoetemelkFRAGan-Mercier-Hutchinson01:04:56  +  00:01:41=36,961 
8 BELMichel PollentierBELCarpenter Confortluxe-Flandria01:05:34  +  00:02:19=36,604 
9 BELEduard JanssensITAMolteni01:06:15  +  00:03:00=36,226 
10 FRAYves HézardFRAGan-Mercier-Hutchinson01:06:15  +  00:03:00=36,226 
11 FRAGeorges TalbourdetFRAGan-Mercier-Hutchinson01:06:26  +  00:03:11=36,126 
12 NEDHennie KuiperNLDFrisol-G.B.C.01:06:35  +  00:03:20=36,045 
13 ESPJosé-Luis ViejoESPSuper Ser01:07:18  +  00:04:03=35,661 
14 NEDFedor Iwan Den HertogNLDFrisol-G.B.C.01:07:36  +  00:04:21=35,503 
15 ESPPedro TorresESPSuper Ser01:07:50  +  00:04:35=35,381 
16 BELJos De SchoenmaeckerITAMolteni01:07:56  +  00:04:41=35,329 
17 NEDGerrie KnetemannFRAGan-Mercier-Hutchinson01:07:58  +  00:04:43=35,311 
18 ITAFrancesco MoserITAFilotex01:08:01  +  00:04:46=35,285 
19 SUIJosef FuchsITAFilotex01:08:20  +  00:05:05=35,122 
20 ESPVicente LopezESPKas-Kaskol01:08:27  +  00:05:12=35,062 
21 ITAFabrizio FabbriITABianchi-Campagnolo01:08:28  +  00:05:13=35,054 
22 ESPMariano MartinezFRAGitane-Campagnolo01:08:36  +  00:05:21=34,985 
23 ESPAntonio MenendezESPKas-Kaskol01:09:00  +  00:05:45=34,783 
24 BELKarel RottiersITAMolteni01:09:02  +  00:05:47=34,766 
25 ITAMauro SimonettiITAFilotex01:09:13  +  00:05:58=34,674 
26 FRAJoël MillardFRAJobo-Wolber01:09:15  +  00:06:00=34,657 
27 BELJoseph HuysmansITAMolteni01:09:15  +  00:06:00=34,657 
28 ESPJosé CasasESPSuper Ser01:09:22  +  00:06:07=34,599 
29 PORFernando FerreiraPRTSporting-Sottomayor01:09:23  +  00:06:08=34,590 
30 ITAGiacinto SantambrogioITABianchi-Campagnolo01:09:26  +  00:06:11=34,566 
31 ESPFrancisco GaldosESPKas-Kaskol01:09:30  +  00:06:15=34,532 
32 ITARoberto PoggialiITAFilotex01:09:32  +  00:06:17=34,516 
33 FRAPatrick PerretBELMiko-De Gribaldy01:09:37  +  00:06:22=34,475 
34 ITAGiovanni CavalcantiITABianchi-Campagnolo01:09:44  +  00:06:29=34,417 
35 FRAGuy LeleuFRAGitane-Campagnolo01:10:02  +  00:06:47=34,269 
36 ESPAndré RomeroFRAJobo-Wolber01:10:12  +  00:06:57=34,188 
37 NEDGerben KarstensFRAGitane-Campagnolo01:10:13  +  00:06:58=34,180 
38 FRAJean-Claude MisacFRAGan-Mercier-Hutchinson01:10:14  +  00:06:59=34,172 
39 BELWilly TeirlinckFRAGitane-Campagnolo01:10:16  +  00:07:01=34,156 
40 BELHerman Van SpringelBELCarpenter Confortluxe-Flandria01:10:16  +  00:07:01=34,156 
41 ESPJosé PesarrodonaESPKas-Kaskol01:10:17  +  00:07:02=34,147 
42 FRASylvain VasseurESPSuper Ser01:10:41  +  00:07:26=33,954 
43 FRARoger LegeayFRAJobo-Wolber01:11:05  +  00:07:50=33,763 
44 COLMartěn RodríguezITABianchi-Campagnolo01:11:08  +  00:07:53=33,739 
45 FRAHubert MathisBELMiko-De Gribaldy01:11:09  +  00:07:54=33,732 
46 ESPJosé GrandeESPKas-Kaskol01:11:10  +  00:07:55=33,724 
47 ESPCarlos MeleroESPKas-Kaskol01:11:11  +  00:07:56=33,716 
48 BELRené DillenFRAGitane-Campagnolo01:11:21  +  00:08:06=33,637 
49 ITARenato MarchettiITAFilotex01:11:27  +  00:08:12=33,590 
50 ITASigfrido FontanelliITAFilotex01:11:29  +  00:08:14=33,574 
51 ESPLuis BalagueESPSuper Ser01:11:40  +  00:08:25=33,488 
52 FRARaymond PoulidorFRAGan-Mercier-Hutchinson01:11:42  +  00:08:27=33,473 
53 FRARaymond MartinFRAGitane-Campagnolo01:11:57  +  00:08:42=33,356 
54 BELFrans MintjensITAMolteni01:11:59  +  00:08:44=33,341 
55 BELJosé De CauwerNLDFrisol-G.B.C.01:12:14  +  00:08:59=33,226 
56 BELAlbert Van VlierbergheBELMiko-De Gribaldy01:12:21  +  00:09:06=33,172 
57 BELWalter GodefrootBELCarpenter Confortluxe-Flandria01:12:21  +  00:09:06=33,172 
58 BELRonald De WitteBELCarpenter Confortluxe-Flandria01:12:27  +  00:09:12=33,126 
59 FRAFrancis CampanerPRTSporting-Sottomayor01:12:28  +  00:09:13=33,119 
60 FRARaymond DelisleFRAPeugeot-BP-Michelin01:12:37  +  00:09:22=33,050 
61 BELRik Van LindenITABianchi-Campagnolo01:12:38  +  00:09:23=33,043 
62 AUSDonald AllanNLDFrisol-G.B.C.01:12:38  +  00:09:23=33,043 
63 FRAFerdinand JulienPRTSporting-Sottomayor01:12:40  +  00:09:25=33,028 
64 FRAMaurice Le GuillouxFRAGitane-Campagnolo01:12:40  +  00:09:25=33,028 
65 BELTony HoubrechtsITABianchi-Campagnolo01:12:43  +  00:09:28=33,005 
66 ITALuigi CastellettiITABianchi-Campagnolo01:12:48  +  00:09:33=32,967 
67 ITASimone FraccaroITABianchi-Campagnolo01:12:51  +  00:09:36=32,944 
68 BELMarc DemeyerBELCarpenter Confortluxe-Flandria01:12:54  +  00:09:39=32,922 
69 NEDGerard VianenFRAGan-Mercier-Hutchinson01:13:04  +  00:09:49=32,847 
70 FRARégis OvionFRAPeugeot-BP-Michelin01:13:17  +  00:10:02=32,750 
71 FRARobert MintkiewiczFRAGitane-Campagnolo01:13:19  +  00:10:04=32,735 
72 PORJosé AmaroPRTSporting-Sottomayor01:13:57  +  00:10:42=32,454 
73 BELMarc LievensITAMolteni01:13:58  +  00:10:43=32,447 
74 FRARichard PianaroFRAJobo-Wolber01:13:59  +  00:10:44=32,440 
75 FRACharly RouxelFRAPeugeot-BP-Michelin01:14:43  +  00:11:28=32,121 
76 BELJoseph SpruytITAMolteni01:14:59  +  00:11:44=32,007 
77 NEDHenk PrinsenNLDFrisol-G.B.C.01:15:00  +  00:11:45=32,000 
78 FRAJoel HauvieuxFRAJobo-Wolber01:15:07  +  00:11:52=31,950 
79 NEDGerard KamperNLDFrisol-G.B.C.01:15:11  +  00:11:56=31,922 
80 FRASerge ParsaniITABianchi-Campagnolo01:15:19  +  00:12:04=31,865 
81 FRABernard BourreauFRAPeugeot-BP-Michelin01:15:20  +  00:12:05=31,858 
82 BELFrans Van VlierbergheBELMiko-De Gribaldy01:15:21  +  00:12:06=31,851 
83 BELLudo DelcroixITAMolteni01:15:21  +  00:12:06=31,851 
84 ENGBarry HobanFRAGan-Mercier-Hutchinson01:15:34  +  00:12:19=31,760 
85 FRAJacques BoulasFRAJobo-Wolber01:15:35  +  00:12:20=31,753 
86 FRARegis DelepineBELCarpenter Confortluxe-Flandria01:15:35  +  00:12:20=31,753 
87 FRAPatrick BeonFRAPeugeot-BP-Michelin01:16:49  +  00:13:34=31,243 
88 MARAntoine GutierrezBELMiko-De Gribaldy01:17:34  +  00:14:19=30,941 
89 BELHerman BeysensITAMolteni01:18:06  +  00:14:51=30,730 
90 FRAGerard MoneyronBELCarpenter Confortluxe-Flandria01:19:12  +  00:15:57=30,303 
91 FRAClaude MagniFRAJobo-Wolber01:19:21  +  00:16:06=30,246 
92 BELAndre DoyenBELMiko-De Gribaldy01:19:29  +  00:16:14=30,195 
93 FRAGuy SibilleFRAPeugeot-BP-Michelin01:20:50  +  00:17:35=29,691 

Withdrawls: 1
 
Rider
Team
Reason
82  ITAArnaldo CaverzasiITAFilotexDid not start

Todays birthdays.

1887  Charles Ponson
1913  Raymond Lemarie
1928  Jacques Dupont
1951  Francesco Moser
1959  Laurent Biondi
1975  Bert Grabsch
1987  Sacha Modolo




Visits: